This is the latest recevied weather packets stored in our database for station/object KA1AL. If no packets are shown the sender has not sent any weather packets the latest 10 day(s).
| Time | Temp. | Humidity | Pressure | Rain* | Wind** | Luminosity | Snow |
|---|---|---|---|---|---|---|---|
| 1778197782 | 7.22° C | 62% | 1005.1 hPa | 0 mm | - | 3 W/m² | - |
| 1778197479 | 7.22° C | 61% | 1004.8 hPa | 0 mm | - | 4 W/m² | - |
| 1778197175 | 7.22° C | 61% | 1004.8 hPa | 0 mm | - | 6 W/m² | - |
| 1778196872 | 7.78° C | 62% | 1004.7 hPa | 0 mm | - | 9 W/m² | - |
| 1778196571 | 7.78° C | 61% | 1004.5 hPa | 0 mm | - | 11 W/m² | - |
| 1778196266 | 7.78° C | 60% | 1004.9 hPa | 0 mm | - | 15 W/m² | - |
| 1778195964 | 7.78° C | 61% | 1004.8 hPa | 0 mm | - | 17 W/m² | - |
| 1778195660 | 7.78° C | 60% | 1004.7 hPa | 0 mm | - | 20 W/m² | - |
| 1778195357 | 7.78° C | 60% | 1004.6 hPa | 0 mm | - | 23 W/m² | - |
| 1778195055 | 7.78° C | 60% | 1004.7 hPa | 0 mm | - | 25 W/m² | - |
| 1778194754 | 8.33° C | 59% | 1004.6 hPa | 0 mm | - | 26 W/m² | - |
| 1778194451 | 8.33° C | 58% | 1004.5 hPa | 0 mm | - | 32 W/m² | - |
| 1778194147 | 8.89° C | 58% | 1004.5 hPa | 0 mm | - | 40 W/m² | - |
| 1778193843 | 8.89° C | 56% | 1004.4 hPa | 0 mm | - | 66 W/m² | - |
| 1778193540 | 8.89° C | 58% | 1004.2 hPa | 0 mm | - | 81 W/m² | - |
| 1778193236 | 8.89° C | 57% | 1004.5 hPa | 0 mm | - | 42 W/m² | - |
| 1778192934 | 9.44° C | 57% | 1004.2 hPa | 0 mm | - | 58 W/m² | - |
| 1778192629 | 10° C | 57% | 1004.2 hPa | 0 mm | - | 117 W/m² | - |
| 1778192327 | 10° C | 55% | 1003.7 hPa | 0 mm | - | 132 W/m² | - |
| 1778192023 | 10° C | 56% | 1003.9 hPa | 0 mm | - | 145 W/m² | - |
| 1778191719 | 10° C | 55% | 1003.7 hPa | 0 mm | - | 154 W/m² | - |
| 1778191418 | 10.56° C | 55% | 1003.9 hPa | 0 mm | - | 177 W/m² | - |
| 1778191113 | 10.56° C | 55% | 1003.8 hPa | 0 mm | - | 187 W/m² | - |
| 1778190811 | 10.56° C | 56% | 1003.7 hPa | 0 mm | - | 203 W/m² | - |
| 1778190508 | 10.56° C | 55% | 1003.8 hPa | 0 mm | - | 216 W/m² | - |
* Rain latest hour (hover to see other rain measurements)
** Current wind speed in m/s (hover to see current wind gust speed)